Location: ??????
(41.3164°N, 22.6615°E)
Time: 19:05:27
(UTC+00:00)

ZACube-1 - Pass Details

Date: 03 July 2022
Orbit: 582 x 661 km, 97.6° (Epoch: 07 August)

Event Time Altitude Azimuth Distance (km) Brightness Sun altitude
Rises 01:11:56 0° 32° (NNE) 2,964 ? -16.0°
Reaches altitude 10° 01:15:03 10° 55° (NE) 2,061 ? -15.6°
Maximum altitude 01:17:40 15° 91° (E) 1,744 ? -15.3°
Drops below altitude 10° 01:20:17 10° 127° (SE) 2,068 ? -15.0°
Sets 01:23:24 0° 150° (SSE) 2,979 ? -14.6°
